Year,Month,Day,Hour,Minute,Value (Times are PST for temperature in C)
2019,03,05,00,00,-2.00
2019,03,05,00,01,-2.00
2019,03,05,00,02,-2.00
2019,03,05,00,03,-2.00
2019,03,05,00,04,-2.00
2019,03,05,00,05,-2.00
2019,03,05,00,06,-2.00
2019,03,05,00,07,-1.90
2019,03,05,00,08,-1.90
2019,03,05,00,09,-1.90
2019,03,05,00,10,-1.90
2019,03,05,00,11,-1.90
2019,03,05,00,12,-1.90
2019,03,05,00,13,-1.90
2019,03,05,00,14,-1.90
2019,03,05,00,15,-1.80
2019,03,05,00,16,-1.80
2019,03,05,00,17,-1.80
2019,03,05,00,18,-1.80
2019,03,05,00,19,-1.80
2019,03,05,00,20,-1.80
2019,03,05,00,21,-1.80
2019,03,05,00,22,-1.80
2019,03,05,00,23,-1.80
2019,03,05,00,24,-1.80
2019,03,05,00,25,-1.80
2019,03,05,00,26,-1.80
2019,03,05,00,27,-1.80
2019,03,05,00,28,-1.80
2019,03,05,00,29,-1.80
2019,03,05,00,30,-1.80
2019,03,05,00,31,-1.80
2019,03,05,00,32,-1.80
2019,03,05,00,33,-1.80
2019,03,05,00,34,-1.80
2019,03,05,00,35,-1.80
2019,03,05,00,36,-1.80
2019,03,05,00,37,-1.80
2019,03,05,00,38,-1.70
2019,03,05,00,39,-1.70
2019,03,05,00,40,-1.70
2019,03,05,00,41,-1.70
2019,03,05,00,42,-1.70
2019,03,05,00,43,-1.70
2019,03,05,00,44,-1.70
2019,03,05,00,45,-1.70
2019,03,05,00,46,-1.70
2019,03,05,00,47,-1.70
2019,03,05,00,48,-1.70
2019,03,05,00,49,-1.70
2019,03,05,00,50,-1.70
2019,03,05,00,51,-1.70
2019,03,05,00,52,-1.70
2019,03,05,00,53,-1.70
2019,03,05,00,54,-1.70
2019,03,05,00,55,-1.70
2019,03,05,00,56,-1.70
2019,03,05,00,57,-1.70
2019,03,05,00,58,-1.70
2019,03,05,00,59,-1.70
2019,03,05,01,00,-1.70
2019,03,05,01,01,-1.70
2019,03,05,01,02,-1.70
2019,03,05,01,03,-1.70
2019,03,05,01,04,-1.70
2019,03,05,01,05,-1.70
2019,03,05,01,06,-1.70
2019,03,05,01,07,-1.70
2019,03,05,01,08,-1.70
2019,03,05,01,09,-1.70
2019,03,05,01,10,-1.70
2019,03,05,01,11,-1.70
2019,03,05,01,12,-1.70
2019,03,05,01,13,-1.70
2019,03,05,01,14,-1.60
2019,03,05,01,15,-1.60
2019,03,05,01,16,-1.60
2019,03,05,01,17,-1.60
2019,03,05,01,18,-1.60
2019,03,05,01,19,-1.60
2019,03,05,01,20,-1.60
2019,03,05,01,21,-1.60
2019,03,05,01,22,-1.60
2019,03,05,01,23,-1.60
2019,03,05,01,24,-1.60
2019,03,05,01,25,-1.60
2019,03,05,01,26,-1.60
2019,03,05,01,27,-1.60
2019,03,05,01,28,-1.60
2019,03,05,01,29,-1.60
2019,03,05,01,30,-1.60
2019,03,05,01,31,-1.60
2019,03,05,01,32,-1.60
2019,03,05,01,33,-1.60
2019,03,05,01,34,-1.60
2019,03,05,01,35,-1.60
2019,03,05,01,36,-1.60
2019,03,05,01,37,-1.60
2019,03,05,01,38,-1.60
2019,03,05,01,39,-1.60
2019,03,05,01,40,-1.60
2019,03,05,01,41,-1.60
2019,03,05,01,42,-1.60
2019,03,05,01,43,-1.60
2019,03,05,01,44,-1.60
2019,03,05,01,45,-1.60
2019,03,05,01,46,-1.60
2019,03,05,01,47,-1.60
2019,03,05,01,48,-1.70
2019,03,05,01,49,-1.70
2019,03,05,01,50,-1.70
2019,03,05,01,51,-1.70
2019,03,05,01,52,-1.70
2019,03,05,01,53,-1.70
2019,03,05,01,54,-1.70
2019,03,05,01,55,-1.70
2019,03,05,01,56,-1.70
2019,03,05,01,57,-1.70
2019,03,05,01,58,-1.70
2019,03,05,01,59,-1.80
2019,03,05,02,00,-1.80
2019,03,05,02,01,-1.80
2019,03,05,02,02,-1.80
2019,03,05,02,03,-1.80
2019,03,05,02,04,-1.80
2019,03,05,02,05,-1.80
2019,03,05,02,06,-1.70
2019,03,05,02,07,-1.70
2019,03,05,02,08,-1.70
2019,03,05,02,09,-1.70
2019,03,05,02,10,-1.70
2019,03,05,02,11,-1.70
2019,03,05,02,12,-1.70
2019,03,05,02,13,-1.70
2019,03,05,02,14,-1.70
2019,03,05,02,15,-1.70
2019,03,05,02,16,-1.70
2019,03,05,02,17,-1.70
2019,03,05,02,18,-1.80
2019,03,05,02,19,-1.80
2019,03,05,02,20,-1.80
2019,03,05,02,21,-1.80
2019,03,05,02,22,-1.80
2019,03,05,02,23,-1.80
2019,03,05,02,24,-1.80
2019,03,05,02,25,-1.80
2019,03,05,02,26,-1.80
2019,03,05,02,27,-1.80
2019,03,05,02,28,-1.90
2019,03,05,02,29,-1.90
2019,03,05,02,30,-1.90
2019,03,05,02,31,-1.90
2019,03,05,02,32,-1.90
2019,03,05,02,33,-1.90
2019,03,05,02,34,-1.90
2019,03,05,02,35,-1.90
2019,03,05,02,36,-1.90
2019,03,05,02,37,-1.90
2019,03,05,02,38,-1.90
2019,03,05,02,39,-1.90
2019,03,05,02,40,-1.90
2019,03,05,02,41,-1.90
2019,03,05,02,42,-1.90
2019,03,05,02,43,-1.90
2019,03,05,02,44,-1.90
2019,03,05,02,45,-1.90
2019,03,05,02,46,-1.90
2019,03,05,02,47,-1.90
2019,03,05,02,48,-1.90
2019,03,05,02,49,-1.90
2019,03,05,02,50,-1.90
2019,03,05,02,51,-1.90
2019,03,05,02,52,-1.90
2019,03,05,02,53,-1.90
2019,03,05,02,54,-1.90
2019,03,05,02,55,-1.90
2019,03,05,02,56,-1.90
2019,03,05,02,57,-1.90
2019,03,05,02,58,-1.90
2019,03,05,02,59,-1.90
2019,03,05,03,00,-1.90
2019,03,05,03,01,-1.90
2019,03,05,03,02,-1.90
2019,03,05,03,03,-1.90
2019,03,05,03,04,-1.90
2019,03,05,03,05,-1.90
2019,03,05,03,06,-1.90
2019,03,05,03,07,-1.90
2019,03,05,03,08,-1.80
2019,03,05,03,09,-1.80
2019,03,05,03,10,-1.80
2019,03,05,03,11,-1.80
2019,03,05,03,12,-1.80
2019,03,05,03,13,-1.80
2019,03,05,03,14,-1.80
2019,03,05,03,15,-1.80
2019,03,05,03,16,-1.80
2019,03,05,03,17,-1.80
2019,03,05,03,18,-1.80
2019,03,05,03,19,-1.70
2019,03,05,03,20,-1.70
2019,03,05,03,21,-1.70
2019,03,05,03,22,-1.60
2019,03,05,03,23,-1.60
2019,03,05,03,24,-1.60
2019,03,05,03,25,-1.60
2019,03,05,03,26,-1.60
2019,03,05,03,27,-1.60
2019,03,05,03,28,-1.60
2019,03,05,03,29,-1.60
2019,03,05,03,30,-1.60
2019,03,05,03,31,-1.50
2019,03,05,03,32,-1.50
2019,03,05,03,33,-1.50
2019,03,05,03,34,-1.50
2019,03,05,03,35,-1.50
2019,03,05,03,36,-1.50
2019,03,05,03,37,-1.50
2019,03,05,03,38,-1.50
2019,03,05,03,39,-1.50
2019,03,05,03,40,-1.50
2019,03,05,03,41,-1.50
2019,03,05,03,42,-1.50
2019,03,05,03,43,-1.50
2019,03,05,03,44,-1.50
2019,03,05,03,45,-1.50
2019,03,05,03,46,-1.50
2019,03,05,03,47,-1.60
2019,03,05,03,48,-1.60
2019,03,05,03,49,-1.60
2019,03,05,03,50,-1.60
2019,03,05,03,51,-1.60
2019,03,05,03,52,-1.60
2019,03,05,03,53,-1.70
2019,03,05,03,54,-1.70
2019,03,05,03,55,-1.70
2019,03,05,03,56,-1.70
2019,03,05,03,57,-1.70
2019,03,05,03,58,-1.70
2019,03,05,03,59,-1.70
2019,03,05,04,00,-1.70
2019,03,05,04,01,-1.70
2019,03,05,04,02,-1.70
2019,03,05,04,03,-1.70
2019,03,05,04,04,-1.70
2019,03,05,04,05,-1.80
2019,03,05,04,06,-1.80
2019,03,05,04,07,-1.80
2019,03,05,04,08,-1.80
2019,03,05,04,09,-1.80
2019,03,05,04,10,-1.70
2019,03,05,04,11,-1.70
2019,03,05,04,12,-1.70
2019,03,05,04,13,-1.70
2019,03,05,04,14,-1.70
2019,03,05,04,15,-1.70
2019,03,05,04,16,-1.80
2019,03,05,04,17,-1.80
2019,03,05,04,18,-1.80
2019,03,05,04,19,-1.80
2019,03,05,04,20,-1.70
2019,03,05,04,21,-1.70
2019,03,05,04,22,-1.70
2019,03,05,04,23,-1.70
2019,03,05,04,24,-1.70
2019,03,05,04,25,-1.70
2019,03,05,04,26,-1.70
2019,03,05,04,27,-1.70
2019,03,05,04,28,-1.70
2019,03,05,04,29,-1.70
2019,03,05,04,30,-1.70
2019,03,05,04,31,-1.70
2019,03,05,04,32,-1.70
2019,03,05,04,33,-1.70
2019,03,05,04,34,-1.70
2019,03,05,04,35,-1.80
2019,03,05,04,36,-1.80
2019,03,05,04,37,-1.80
2019,03,05,04,38,-1.80
2019,03,05,04,39,-1.70
2019,03,05,04,40,-1.80
2019,03,05,04,41,-1.70
2019,03,05,04,42,-1.70
2019,03,05,04,43,-1.70
2019,03,05,04,44,-1.70
2019,03,05,04,45,-1.70
2019,03,05,04,46,-1.70
2019,03,05,04,47,-1.70
2019,03,05,04,48,-1.70
2019,03,05,04,49,-1.70
2019,03,05,04,50,-1.70
2019,03,05,04,51,-1.70
2019,03,05,04,52,-1.70
2019,03,05,04,53,-1.70
2019,03,05,04,54,-1.70
2019,03,05,04,55,-1.70
2019,03,05,04,56,-1.70
2019,03,05,04,57,-1.70
2019,03,05,04,58,-1.70
2019,03,05,04,59,-1.70
2019,03,05,05,00,-1.70
2019,03,05,05,01,-1.70
2019,03,05,05,02,-1.70
2019,03,05,05,03,-1.70
2019,03,05,05,04,-1.70
2019,03,05,05,05,-1.70
2019,03,05,05,06,-1.70
2019,03,05,05,07,-1.70
2019,03,05,05,08,-1.70
2019,03,05,05,09,-1.70
2019,03,05,05,10,-1.70
2019,03,05,05,11,-1.70
2019,03,05,05,12,-1.70
2019,03,05,05,13,-1.70
2019,03,05,05,14,-1.70
2019,03,05,05,15,-1.70
2019,03,05,05,16,-1.60
2019,03,05,05,17,-1.60
2019,03,05,05,18,-1.60
2019,03,05,05,19,-1.60
2019,03,05,05,20,-1.50
2019,03,05,05,21,-1.50
2019,03,05,05,22,-1.50
2019,03,05,05,23,-1.50
2019,03,05,05,24,-1.50
2019,03,05,05,25,-1.50
2019,03,05,05,26,-1.40
2019,03,05,05,27,-1.40
2019,03,05,05,28,-1.30
2019,03,05,05,29,-1.30
2019,03,05,05,30,-1.20
2019,03,05,05,31,-1.20
2019,03,05,05,32,-1.20
2019,03,05,05,33,-1.20
2019,03,05,05,34,-1.20
2019,03,05,05,35,-1.10
2019,03,05,05,36,-1.10
2019,03,05,05,37,-1.20
2019,03,05,05,38,-1.20
2019,03,05,05,39,-1.20
2019,03,05,05,40,-1.20
2019,03,05,05,41,-1.20
2019,03,05,05,42,-1.20
2019,03,05,05,43,-1.30
2019,03,05,05,44,-1.30
2019,03,05,05,45,-1.30
2019,03,05,05,46,-1.30
2019,03,05,05,47,-1.30
2019,03,05,05,48,-1.30
2019,03,05,05,49,-1.30
2019,03,05,05,50,-1.40
2019,03,05,05,51,-1.40
2019,03,05,05,52,-1.40
2019,03,05,05,53,-1.40
2019,03,05,05,54,-1.50
2019,03,05,05,55,-1.50
2019,03,05,05,56,-1.50
2019,03,05,05,57,-1.50
2019,03,05,05,58,-1.50
2019,03,05,05,59,-1.50
2019,03,05,06,00,-1.50
2019,03,05,06,01,-1.60
2019,03,05,06,02,-1.60
2019,03,05,06,03,-1.60
2019,03,05,06,04,-1.60
2019,03,05,06,05,-1.60
2019,03,05,06,06,-1.60
2019,03,05,06,07,-1.60
2019,03,05,06,08,-1.60
2019,03,05,06,09,-1.60
2019,03,05,06,10,-1.60
2019,03,05,06,11,-1.60
2019,03,05,06,12,-1.60
2019,03,05,06,13,-1.60
2019,03,05,06,14,-1.60
2019,03,05,06,15,-1.60
2019,03,05,06,16,-1.60
2019,03,05,06,17,-1.60
2019,03,05,06,18,-1.60
2019,03,05,06,19,-1.60
2019,03,05,06,20,-1.60
2019,03,05,06,21,-1.60
2019,03,05,06,22,-1.60
2019,03,05,06,23,-1.60
2019,03,05,06,24,-1.60
2019,03,05,06,25,-1.70
2019,03,05,06,26,-1.70
2019,03,05,06,27,-1.70
2019,03,05,06,28,-1.70
2019,03,05,06,29,-1.70
2019,03,05,06,30,-1.70
2019,03,05,06,31,-1.70
2019,03,05,06,32,-1.60
2019,03,05,06,33,-1.60
2019,03,05,06,34,-1.60
2019,03,05,06,35,-1.50
2019,03,05,06,36,-1.50
2019,03,05,06,37,-1.40
2019,03,05,06,38,-1.30
2019,03,05,06,39,-1.30
2019,03,05,06,40,-1.30
2019,03,05,06,41,-1.30
2019,03,05,06,42,-1.20
2019,03,05,06,43,-1.20
2019,03,05,06,44,-1.20
2019,03,05,06,45,-1.20
2019,03,05,06,46,-1.20
2019,03,05,06,47,-1.20
2019,03,05,06,48,-1.30
2019,03,05,06,49,-1.30
2019,03,05,06,50,-1.30
2019,03,05,06,51,-1.30
2019,03,05,06,52,-1.30
2019,03,05,06,53,-1.30
2019,03,05,06,54,-1.40
2019,03,05,06,55,-1.40
2019,03,05,06,56,-1.40
2019,03,05,06,57,-1.40
2019,03,05,06,58,-1.50
2019,03,05,06,59,-1.50
2019,03,05,07,00,-1.50
2019,03,05,07,01,-1.50
2019,03,05,07,02,-1.50
2019,03,05,07,03,-1.50
2019,03,05,07,04,-1.60
2019,03,05,07,05,-1.60
2019,03,05,07,06,-1.60
2019,03,05,07,07,-1.60
2019,03,05,07,08,-1.60
2019,03,05,07,09,-1.60
2019,03,05,07,10,-1.60
2019,03,05,07,11,-1.60
2019,03,05,07,12,-1.60
2019,03,05,07,13,-1.60
2019,03,05,07,14,-1.60
2019,03,05,07,15,-1.50
2019,03,05,07,16,-1.50
2019,03,05,07,17,-1.50
2019,03,05,07,18,-1.40
2019,03,05,07,19,-1.40
2019,03,05,07,20,-1.40
2019,03,05,07,21,-1.40
2019,03,05,07,22,-1.40
2019,03,05,07,23,-1.40
2019,03,05,07,24,-1.40
2019,03,05,07,25,-1.30
2019,03,05,07,26,-1.30
2019,03,05,07,27,-1.30
2019,03,05,07,28,-1.30
2019,03,05,07,29,-1.30
2019,03,05,07,30,-1.20
2019,03,05,07,31,-1.20
2019,03,05,07,32,-1.20
2019,03,05,07,33,-1.20
2019,03,05,07,34,-1.20
2019,03,05,07,35,-1.20
2019,03,05,07,36,-1.10
2019,03,05,07,37,-1.10
2019,03,05,07,38,-1.10
2019,03,05,07,39,-1.10
2019,03,05,07,40,-1.10
2019,03,05,07,41,-1.00
2019,03,05,07,42,-1.00
2019,03,05,07,43,-0.90
2019,03,05,07,44,-0.90
2019,03,05,07,45,-0.90
2019,03,05,07,46,-0.90
2019,03,05,07,47,-0.90
2019,03,05,07,48,-0.90
2019,03,05,07,49,-0.80
2019,03,05,07,50,-0.80
2019,03,05,07,51,-0.80
2019,03,05,07,52,-0.80
2019,03,05,07,53,-0.80
2019,03,05,07,54,-0.70
2019,03,05,07,55,-0.70
2019,03,05,07,56,-0.70
2019,03,05,07,57,-0.60
2019,03,05,07,58,-0.60
2019,03,05,07,59,-0.60
2019,03,05,08,00,-0.60
2019,03,05,08,01,-0.60
2019,03,05,08,02,-0.60
2019,03,05,08,03,-0.50
2019,03,05,08,04,-0.50
2019,03,05,08,05,-0.40
2019,03,05,08,06,-0.40
2019,03,05,08,07,-0.40
2019,03,05,08,08,-0.40
2019,03,05,08,09,-0.30
2019,03,05,08,10,-0.30
2019,03,05,08,11,-0.30
2019,03,05,08,12,-0.20
2019,03,05,08,13,-0.20
2019,03,05,08,14,-0.10
2019,03,05,08,15,-0.10
2019,03,05,08,16,-0.10
2019,03,05,08,17,0.00
2019,03,05,08,18,0.00
2019,03,05,08,19,0.00
2019,03,05,08,20,0.10
2019,03,05,08,21,0.10
2019,03,05,08,22,0.10
2019,03,05,08,23,0.20
2019,03,05,08,24,0.20
2019,03,05,08,25,0.20
2019,03,05,08,26,0.30
2019,03,05,08,27,0.30
2019,03,05,08,28,0.30
2019,03,05,08,29,0.40
2019,03,05,08,30,0.40
2019,03,05,08,31,0.40
2019,03,05,08,32,0.50
2019,03,05,08,33,0.60
2019,03,05,08,34,0.60
2019,03,05,08,35,0.70
2019,03,05,08,36,0.80
2019,03,05,08,37,0.80
2019,03,05,08,38,0.90
2019,03,05,08,39,1.00
2019,03,05,08,40,1.10
2019,03,05,08,41,1.20
2019,03,05,08,42,1.30
2019,03,05,08,43,1.40
2019,03,05,08,44,1.50
2019,03,05,08,45,1.60
2019,03,05,08,46,1.60
2019,03,05,08,47,1.70
2019,03,05,08,48,1.70
2019,03,05,08,49,1.70
2019,03,05,08,50,1.80
2019,03,05,08,51,1.80
2019,03,05,08,52,1.80
2019,03,05,08,53,1.80
2019,03,05,08,54,1.90
2019,03,05,08,55,1.90
2019,03,05,08,56,1.90
2019,03,05,08,57,1.90
2019,03,05,08,58,2.00
2019,03,05,08,59,2.00
2019,03,05,09,00,2.10
2019,03,05,09,01,2.20
2019,03,05,09,02,2.20
2019,03,05,09,03,2.30
2019,03,05,09,04,2.30
2019,03,05,09,05,2.40
2019,03,05,09,06,2.50
2019,03,05,09,07,2.70
2019,03,05,09,08,2.80
2019,03,05,09,09,2.90
2019,03,05,09,10,3.00
2019,03,05,09,11,3.20
2019,03,05,09,12,3.30
2019,03,05,09,13,3.30
2019,03,05,09,14,3.30
2019,03,05,09,15,3.30
2019,03,05,09,16,3.30
2019,03,05,09,17,3.40
2019,03,05,09,18,3.40
2019,03,05,09,19,3.50
2019,03,05,09,20,3.60
2019,03,05,09,21,3.60
2019,03,05,09,22,3.60
2019,03,05,09,23,3.60
2019,03,05,09,24,3.70
2019,03,05,09,25,3.70
2019,03,05,09,26,3.80
2019,03,05,09,27,3.80
2019,03,05,09,28,3.90
2019,03,05,09,29,3.90
2019,03,05,09,30,3.90
2019,03,05,09,31,3.80
2019,03,05,09,32,3.80
2019,03,05,09,33,3.70
2019,03,05,09,34,3.70
2019,03,05,09,35,3.70
2019,03,05,09,36,3.70
2019,03,05,09,37,3.70
2019,03,05,09,38,3.70
2019,03,05,09,39,3.70
2019,03,05,09,40,3.70
2019,03,05,09,41,3.70
2019,03,05,09,42,3.80
2019,03,05,09,43,3.90
2019,03,05,09,44,3.90
2019,03,05,09,45,3.90
2019,03,05,09,46,3.90
2019,03,05,09,47,3.90
2019,03,05,09,48,4.00
2019,03,05,09,49,4.00
2019,03,05,09,50,4.10
2019,03,05,09,51,4.20
2019,03,05,09,52,4.30
2019,03,05,09,53,4.30
2019,03,05,09,54,4.30
2019,03,05,09,55,4.30
2019,03,05,09,56,4.30
2019,03,05,09,57,4.30
2019,03,05,09,58,4.30
2019,03,05,09,59,4.40
2019,03,05,10,00,4.40
2019,03,05,10,01,4.30
2019,03,05,10,02,4.30
2019,03,05,10,03,4.30
2019,03,05,10,04,4.20
2019,03,05,10,05,4.10
2019,03,05,10,06,4.00
2019,03,05,10,07,3.90
2019,03,05,10,08,3.90
2019,03,05,10,09,3.90
2019,03,05,10,10,3.80
2019,03,05,10,11,3.90
2019,03,05,10,12,3.90
2019,03,05,10,13,4.00
2019,03,05,10,14,4.00
2019,03,05,10,15,4.10
2019,03,05,10,16,4.10
2019,03,05,10,17,4.10
2019,03,05,10,18,4.10
2019,03,05,10,19,4.10
2019,03,05,10,20,4.10
2019,03,05,10,21,4.20
2019,03,05,10,22,4.20
2019,03,05,10,23,4.20
2019,03,05,10,24,4.20
2019,03,05,10,25,4.20
2019,03,05,10,26,4.20
2019,03,05,10,27,4.20
2019,03,05,10,28,4.20
2019,03,05,10,29,4.10
2019,03,05,10,30,4.10
2019,03,05,10,31,4.20
2019,03,05,10,32,4.20
2019,03,05,10,33,4.20
2019,03,05,10,34,4.20
2019,03,05,10,35,4.20
2019,03,05,10,36,4.20
2019,03,05,10,37,4.20
2019,03,05,10,38,4.10
2019,03,05,10,39,4.10
2019,03,05,10,40,4.10
2019,03,05,10,41,4.10
2019,03,05,10,42,4.00
2019,03,05,10,43,4.00
2019,03,05,10,44,4.00
2019,03,05,10,45,4.00
2019,03,05,10,46,4.10
2019,03,05,10,47,4.00
2019,03,05,10,48,4.00
2019,03,05,10,49,4.00
2019,03,05,10,50,4.00
2019,03,05,10,51,4.10
2019,03,05,10,52,4.20
2019,03,05,10,53,4.20
2019,03,05,10,54,4.20
2019,03,05,10,55,4.20
2019,03,05,10,56,4.10
2019,03,05,10,57,4.10
2019,03,05,10,58,4.10
2019,03,05,10,59,4.10
2019,03,05,11,00,4.10
2019,03,05,11,01,4.10
2019,03,05,11,02,4.20
2019,03,05,11,03,4.20
2019,03,05,11,04,4.30
2019,03,05,11,05,4.30
2019,03,05,11,06,4.30
2019,03,05,11,07,4.30
2019,03,05,11,08,4.30
2019,03,05,11,09,4.30
2019,03,05,11,10,4.30
2019,03,05,11,11,4.30
2019,03,05,11,12,4.30
2019,03,05,11,13,4.40
2019,03,05,11,14,4.40
2019,03,05,11,15,4.40
2019,03,05,11,16,4.30
2019,03,05,11,17,4.30
2019,03,05,11,18,4.30
2019,03,05,11,19,4.30
2019,03,05,11,20,4.40
2019,03,05,11,21,4.40
2019,03,05,11,22,4.40
2019,03,05,11,23,4.40
2019,03,05,11,24,4.40
2019,03,05,11,25,4.30
2019,03,05,11,26,4.30
2019,03,05,11,27,4.30
2019,03,05,11,28,4.30
2019,03,05,11,29,4.20
2019,03,05,11,30,4.30
2019,03,05,11,31,4.30
2019,03,05,11,32,4.30
2019,03,05,11,33,4.40
2019,03,05,11,34,4.40
2019,03,05,11,35,4.50
2019,03,05,11,36,4.50
2019,03,05,11,37,4.60
2019,03,05,11,38,4.60
2019,03,05,11,39,4.60
2019,03,05,11,40,4.60
2019,03,05,11,41,4.60
2019,03,05,11,42,4.60
2019,03,05,11,43,4.60
2019,03,05,11,44,4.70
2019,03,05,11,45,4.70
2019,03,05,11,46,4.80
2019,03,05,11,47,4.90
2019,03,05,11,48,4.80
2019,03,05,11,49,4.80
2019,03,05,11,50,4.90
2019,03,05,11,51,4.90
2019,03,05,11,52,4.90
2019,03,05,11,53,4.90
2019,03,05,11,54,5.00
2019,03,05,11,55,5.00
2019,03,05,11,56,5.10
2019,03,05,11,57,5.10
2019,03,05,11,58,5.20
2019,03,05,11,59,5.20
2019,03,05,12,00,5.10
2019,03,05,12,01,5.10
2019,03,05,12,02,5.10
2019,03,05,12,03,5.20
2019,03,05,12,04,5.20
2019,03,05,12,05,5.30
2019,03,05,12,06,5.30
2019,03,05,12,07,5.40
2019,03,05,12,08,5.40
2019,03,05,12,09,5.30
2019,03,05,12,10,5.10
2019,03,05,12,11,5.00
2019,03,05,12,12,4.90
2019,03,05,12,13,4.90
2019,03,05,12,14,4.80
2019,03,05,12,15,4.80
2019,03,05,12,16,4.80
2019,03,05,12,17,4.80
2019,03,05,12,18,4.90
2019,03,05,12,19,5.10
2019,03,05,12,20,5.20
2019,03,05,12,21,5.30
2019,03,05,12,22,5.30
2019,03,05,12,23,5.20
2019,03,05,12,24,5.20
2019,03,05,12,25,5.20
2019,03,05,12,26,5.20
2019,03,05,12,27,5.20
2019,03,05,12,28,5.20
2019,03,05,12,29,5.20
2019,03,05,12,30,5.20
2019,03,05,12,31,5.20
2019,03,05,12,32,5.30
2019,03,05,12,33,5.40
2019,03,05,12,34,5.50
2019,03,05,12,35,5.50
2019,03,05,12,36,5.50
2019,03,05,12,37,5.50
2019,03,05,12,38,5.50
2019,03,05,12,39,5.50
2019,03,05,12,40,5.50
2019,03,05,12,41,5.50
2019,03,05,12,42,5.50
2019,03,05,12,43,5.40
2019,03,05,12,44,5.40
2019,03,05,12,45,5.40
2019,03,05,12,46,5.40
2019,03,05,12,47,5.40
2019,03,05,12,48,5.50
2019,03,05,12,49,5.50
2019,03,05,12,50,5.50
2019,03,05,12,51,5.60
2019,03,05,12,52,5.60
2019,03,05,12,53,5.70
2019,03,05,12,54,5.70
2019,03,05,12,55,5.70
2019,03,05,12,56,5.70
2019,03,05,12,57,5.80
2019,03,05,12,58,5.80
2019,03,05,12,59,5.80
2019,03,05,13,00,5.80
2019,03,05,13,01,5.80
2019,03,05,13,02,5.80
2019,03,05,13,03,5.80
2019,03,05,13,04,5.90
2019,03,05,13,05,5.90
2019,03,05,13,06,5.90
2019,03,05,13,07,6.00
2019,03,05,13,08,6.00
2019,03,05,13,09,6.10
2019,03,05,13,10,6.10
2019,03,05,13,11,6.10
2019,03,05,13,12,6.20
2019,03,05,13,13,6.20
2019,03,05,13,14,6.30
2019,03,05,13,15,6.30
2019,03,05,13,16,6.30
2019,03,05,13,17,6.30
2019,03,05,13,18,6.30
2019,03,05,13,19,6.40
2019,03,05,13,20,6.50
2019,03,05,13,21,6.50
2019,03,05,13,22,6.40
2019,03,05,13,23,6.40
2019,03,05,13,24,6.40
2019,03,05,13,25,6.30
2019,03,05,13,26,6.30
2019,03,05,13,27,6.30
2019,03,05,13,28,6.30
2019,03,05,13,29,6.40
2019,03,05,13,30,6.40
2019,03,05,13,31,6.50
2019,03,05,13,32,6.50
2019,03,05,13,33,6.60
2019,03,05,13,34,6.60
2019,03,05,13,35,6.70
2019,03,05,13,36,6.80
2019,03,05,13,37,6.90
2019,03,05,13,38,6.90
2019,03,05,13,39,6.90
2019,03,05,13,40,6.90
2019,03,05,13,41,6.80
2019,03,05,13,42,6.70
2019,03,05,13,43,6.70
2019,03,05,13,44,6.70
2019,03,05,13,45,6.60
2019,03,05,13,46,6.50
2019,03,05,13,47,6.50
2019,03,05,13,48,6.40
2019,03,05,13,49,6.40
2019,03,05,13,50,6.50
2019,03,05,13,51,6.50
2019,03,05,13,52,6.40
2019,03,05,13,53,6.40
2019,03,05,13,54,6.30
2019,03,05,13,55,6.30
2019,03,05,13,56,6.30
2019,03,05,13,57,6.40
2019,03,05,13,58,6.40
2019,03,05,13,59,6.40
2019,03,05,14,00,6.40
2019,03,05,14,01,6.40
2019,03,05,14,02,6.50
2019,03,05,14,03,6.50
2019,03,05,14,04,6.40
2019,03,05,14,05,6.40
2019,03,05,14,06,6.40
2019,03,05,14,07,6.50
2019,03,05,14,08,6.60
2019,03,05,14,09,6.60
2019,03,05,14,10,6.70
2019,03,05,14,11,6.80
2019,03,05,14,12,6.80
2019,03,05,14,13,6.80
2019,03,05,14,14,6.80
2019,03,05,14,15,6.70
2019,03,05,14,16,6.70
2019,03,05,14,17,6.70
2019,03,05,14,18,6.70
2019,03,05,14,19,6.70
2019,03,05,14,20,6.70
2019,03,05,14,21,6.80
2019,03,05,14,22,6.70
2019,03,05,14,23,6.70
2019,03,05,14,24,6.70
2019,03,05,14,25,6.70
2019,03,05,14,26,6.70
2019,03,05,14,27,6.70
2019,03,05,14,28,6.80
2019,03,05,14,29,6.90
2019,03,05,14,30,7.00
2019,03,05,14,31,7.10
2019,03,05,14,32,7.20
2019,03,05,14,33,7.20
2019,03,05,14,34,7.20
2019,03,05,14,35,7.20
2019,03,05,14,36,7.20
2019,03,05,14,37,7.20
2019,03,05,14,38,7.30
2019,03,05,14,39,7.30
2019,03,05,14,40,7.30
2019,03,05,14,41,7.30
2019,03,05,14,42,7.30
2019,03,05,14,43,7.30
2019,03,05,14,44,7.30
2019,03,05,14,45,7.20
2019,03,05,14,46,7.10
2019,03,05,14,47,7.10
2019,03,05,14,48,7.00
2019,03,05,14,49,6.90
2019,03,05,14,50,6.90
2019,03,05,14,51,6.80
2019,03,05,14,52,6.80
2019,03,05,14,53,6.80
2019,03,05,14,54,6.80
2019,03,05,14,55,6.90
2019,03,05,14,56,7.00
2019,03,05,14,57,7.00
2019,03,05,14,58,7.00
2019,03,05,14,59,7.00
2019,03,05,15,00,7.10
2019,03,05,15,01,7.10
2019,03,05,15,02,7.10
2019,03,05,15,03,7.10
2019,03,05,15,04,7.10
2019,03,05,15,05,7.10
2019,03,05,15,06,7.10
2019,03,05,15,07,7.10
2019,03,05,15,08,7.20
2019,03,05,15,09,7.20
2019,03,05,15,10,7.30
2019,03,05,15,11,7.30
2019,03,05,15,12,7.40
2019,03,05,15,13,7.40
2019,03,05,15,14,7.30
2019,03,05,15,15,7.30
2019,03,05,15,16,7.20
2019,03,05,15,17,7.20
2019,03,05,15,18,7.10
2019,03,05,15,19,7.10
2019,03,05,15,20,7.10
2019,03,05,15,21,7.10
2019,03,05,15,22,7.20
2019,03,05,15,23,7.20
2019,03,05,15,24,7.10
2019,03,05,15,25,7.10
2019,03,05,15,26,7.10
2019,03,05,15,27,7.10
2019,03,05,15,28,7.00
2019,03,05,15,29,7.00
2019,03,05,15,30,7.00
2019,03,05,15,31,7.00
2019,03,05,15,32,6.90
2019,03,05,15,33,6.90
2019,03,05,15,34,7.00
2019,03,05,15,35,7.00
2019,03,05,15,36,7.00
2019,03,05,15,37,6.90
2019,03,05,15,38,6.90
2019,03,05,15,39,6.90
2019,03,05,15,40,6.90
2019,03,05,15,41,6.80
2019,03,05,15,42,6.90
2019,03,05,15,43,6.90
2019,03,05,15,44,7.00
2019,03,05,15,45,7.00
2019,03,05,15,46,7.10
2019,03,05,15,47,7.10
2019,03,05,15,48,7.20
2019,03,05,15,49,7.30
2019,03,05,15,50,7.30
2019,03,05,15,51,7.30
2019,03,05,15,52,7.30
2019,03,05,15,53,7.30
2019,03,05,15,54,7.30
2019,03,05,15,55,7.30
2019,03,05,15,56,7.30
2019,03,05,15,57,7.30
2019,03,05,15,58,7.20
2019,03,05,15,59,7.20
2019,03,05,16,00,7.20
2019,03,05,16,01,7.20
2019,03,05,16,02,7.20
2019,03,05,16,03,7.20
2019,03,05,16,04,7.20
2019,03,05,16,05,7.20
2019,03,05,16,06,7.20
2019,03,05,16,07,7.10
2019,03,05,16,08,7.10
2019,03,05,16,09,7.00
2019,03,05,16,10,7.00
2019,03,05,16,11,7.00
2019,03,05,16,12,7.00
2019,03,05,16,13,7.00
2019,03,05,16,14,7.10
2019,03,05,16,15,7.10
2019,03,05,16,16,7.10
2019,03,05,16,17,7.10
2019,03,05,16,18,7.00
2019,03,05,16,19,6.90
2019,03,05,16,20,6.90
2019,03,05,16,21,6.80
2019,03,05,16,22,6.80
2019,03,05,16,23,6.70
2019,03,05,16,24,6.60
2019,03,05,16,25,6.60
2019,03,05,16,26,6.60
2019,03,05,16,27,6.60
2019,03,05,16,28,6.70
2019,03,05,16,29,6.70
2019,03,05,16,30,6.70
2019,03,05,16,31,6.70
2019,03,05,16,32,6.80
2019,03,05,16,33,6.80
2019,03,05,16,34,6.80
2019,03,05,16,35,6.90
2019,03,05,16,36,6.90
2019,03,05,16,37,7.00
2019,03,05,16,38,7.00
2019,03,05,16,39,7.00
2019,03,05,16,40,6.90
2019,03,05,16,41,6.90
2019,03,05,16,42,6.90
2019,03,05,16,43,6.90
2019,03,05,16,44,7.00
2019,03,05,16,45,7.00
2019,03,05,16,46,7.00
2019,03,05,16,47,7.00
2019,03,05,16,48,7.00
2019,03,05,16,49,7.00
2019,03,05,16,50,6.90
2019,03,05,16,51,6.90
2019,03,05,16,52,6.90
2019,03,05,16,53,6.90
2019,03,05,16,54,6.90
2019,03,05,16,55,6.80
2019,03,05,16,56,6.80
2019,03,05,16,57,6.80
2019,03,05,16,58,6.80
2019,03,05,16,59,6.80
2019,03,05,17,00,6.80
2019,03,05,17,01,6.80
2019,03,05,17,02,6.90
2019,03,05,17,03,6.80
2019,03,05,17,04,6.80
2019,03,05,17,05,6.90
2019,03,05,17,06,6.90
2019,03,05,17,07,6.90
2019,03,05,17,08,6.90
2019,03,05,17,09,6.90
2019,03,05,17,10,6.90
2019,03,05,17,11,6.90
2019,03,05,17,12,6.90
2019,03,05,17,13,6.90
2019,03,05,17,14,6.80
2019,03,05,17,15,6.80
2019,03,05,17,16,6.80
2019,03,05,17,17,6.80
2019,03,05,17,18,6.80
2019,03,05,17,19,6.80
2019,03,05,17,20,6.80
2019,03,05,17,21,6.80
2019,03,05,17,22,6.80
2019,03,05,17,23,6.80
2019,03,05,17,24,6.70
2019,03,05,17,25,6.70
2019,03,05,17,26,6.70
2019,03,05,17,27,6.70
2019,03,05,17,28,6.70
2019,03,05,17,29,6.70
2019,03,05,17,30,6.70
2019,03,05,17,31,6.60
2019,03,05,17,32,6.60
2019,03,05,17,33,6.60
2019,03,05,17,34,6.60
2019,03,05,17,35,6.50
2019,03,05,17,36,6.50
2019,03,05,17,37,6.40
2019,03,05,17,38,6.40
2019,03,05,17,39,6.30
2019,03,05,17,40,6.30
2019,03,05,17,41,6.20
2019,03,05,17,42,6.10
2019,03,05,17,43,6.00
2019,03,05,17,44,5.90